When you browse on this site, cookies collect data to enhance your experience and personalize the content and advertising you see.
Visit our Privacy Policy to learn more. By continuing to use the site, you agree to this use of cookies and data.
  • în România
  • Lista ţărilor
  • Pe 7 zile
  • Temperatura apei
  • Hartă satelitară
  • Meteo pe hartă
  • Widget-uri
  • user-avatar
    Intrare

    Meteo pe oră la Sokolihino

    Astăzi, 19 Iulie, Vineri

    Timp Temperatura Precipitaţii Vânt Presiune Umiditate
    00:00 +14°C° 0.3 mm 1 m/s 732 mmHg 99%
    01:00 +14°C° 0.3 mm 1 m/s 733 mmHg 99%
    02:00 +14°C° 0 mm 1 m/s 733 mmHg 97%
    03:00 +14°C° 0.1 mm 1 m/s 733 mmHg 98%
    04:00 +14°C° 0.1 mm 1 m/s 734 mmHg 98%
    05:00 +14°C° 0.1 mm 1 m/s 734 mmHg 98%
    06:00 +15°C° 0.4 mm 2 m/s 734 mmHg 98%
    07:00 +15°C° 0.4 mm 2 m/s 734 mmHg 97%
    08:00 +15°C° 0.4 mm 2 m/s 734 mmHg 97%
    09:00 +16°C° 1.2 mm 3 m/s 735 mmHg 96%
    10:00 +16°C° 1.2 mm 3 m/s 735 mmHg 95%
    11:00 +17°C° 1.2 mm 4 m/s 735 mmHg 94%
    12:00 +17°C° 0.8 mm 4 m/s 735 mmHg 93%
    13:00 +16°C° 0.8 mm 5 m/s 735 mmHg 92%
    14:00 +16°C° 0.8 mm 5 m/s 735 mmHg 91%
    15:00 +16°C° 0.2 mm 5 m/s 735 mmHg 89%
    16:00 +17°C° 0.2 mm 5 m/s 736 mmHg 87%
    17:00 +17°C° 0.2 mm 5 m/s 736 mmHg 85%
    18:00 +17°C° 0.3 mm 4 m/s 736 mmHg 89%
    19:00 +15°C° 0.3 mm 4 m/s 736 mmHg 92%
    20:00 +14°C° 0.3 mm 3 m/s 736 mmHg 96%
    21:00 +14°C° 0.1 mm 3 m/s 736 mmHg 96%
    22:00 +14°C° 0.1 mm 3 m/s 737 mmHg 96%
    23:00 +14°C° 0.1 mm 3 m/s 737 mmHg 97%

    Mâine, 20 Iulie, Sâmbătă

    Timp Temperatura Precipitaţii Vânt Presiune Umiditate
    00:00 +14°C° 0.1 mm 3 m/s 737 mmHg 97%
    01:00 +14°C° 0.1 mm 3 m/s 737 mmHg 97%
    02:00 +14°C° 0.1 mm 3 m/s 738 mmHg 97%
    03:00 +14°C° 0 mm 3 m/s 738 mmHg 97%
    04:00 +14°C° 0 mm 4 m/s 738 mmHg 97%
    05:00 +14°C° 0 mm 4 m/s 738 mmHg 97%
    06:00 +14°C° 0 mm 4 m/s 738 mmHg 96%
    07:00 +14°C° 0 mm 4 m/s 739 mmHg 96%
    08:00 +14°C° 0 mm 4 m/s 739 mmHg 95%
    09:00 +15°C° 0.2 mm 4 m/s 740 mmHg 93%
    10:00 +16°C° 0.2 mm 3 m/s 740 mmHg 92%
    11:00 +17°C° 0.2 mm 3 m/s 740 mmHg 90%
    12:00 +18°C° 0.4 mm 3 m/s 740 mmHg 85%
    13:00 +19°C° 0.4 mm 4 m/s 741 mmHg 80%
    14:00 +21°C° 0.4 mm 4 m/s 741 mmHg 76%
    15:00 +20°C° 0.4 mm 4 m/s 741 mmHg 78%
    16:00 +20°C° 0.4 mm 4 m/s 741 mmHg 79%
    17:00 +20°C° 0.4 mm 4 m/s 741 mmHg 81%
    18:00 +19°C° 0.2 mm 3 m/s 742 mmHg 85%
    19:00 +17°C° 0.2 mm 2 m/s 742 mmHg 89%
    20:00 +16°C° 0.2 mm 2 m/s 742 mmHg 94%
    21:00 +16°C° 0 mm 2 m/s 742 mmHg 94%
    22:00 +15°C° 0 mm 2 m/s 742 mmHg 95%
    23:00 +14°C° 0 mm 1 m/s 742 mmHg 96%

    Poimâine, 21 Iulie, Duminică

    Timp Temperatura Precipitaţii Vânt Presiune Umiditate
    00:00 +14°C° 0 mm 1 m/s 743 mmHg 97%
    01:00 +13°C° 0 mm 1 m/s 743 mmHg 97%
    02:00 +13°C° 0 mm 1 m/s 743 mmHg 97%
    03:00 +13°C° 0 mm 1 m/s 743 mmHg 97%
    04:00 +13°C° 0 mm 1 m/s 743 mmHg 97%
    05:00 +13°C° 0 mm 1 m/s 743 mmHg 98%
    06:00 +15°C° 0 mm 1 m/s 744 mmHg 92%
    07:00 +16°C° 0 mm 1 m/s 744 mmHg 86%
    08:00 +19°C° 0 mm 1 m/s 744 mmHg 81%
    09:00 +20°C° 0.2 mm 1 m/s 744 mmHg 74%
    10:00 +21°C° 0.2 mm 2 m/s 744 mmHg 68%
    11:00 +23°C° 0.2 mm 2 m/s 744 mmHg 61%
    12:00 +24°C° 0.2 mm 2 m/s 744 mmHg 59%
    13:00 +24°C° 0.2 mm 2 m/s 744 mmHg 57%
    14:00 +25°C° 0.2 mm 2 m/s 744 mmHg 55%
    15:00 +24°C° 0.1 mm 2 m/s 744 mmHg 58%
    16:00 +24°C° 0.1 mm 1 m/s 744 mmHg 61%
    17:00 +24°C° 0.1 mm 1 m/s 743 mmHg 63%
    18:00 +22°C° 0.1 mm 1 m/s 743 mmHg 70%
    19:00 +20°C° 0.1 mm 1 m/s 743 mmHg 76%
    20:00 +18°C° 0.1 mm 1 m/s 743 mmHg 83%
    21:00 +16°C° 0 mm 1 m/s 743 mmHg 84%
    22:00 +15°C° 0 mm 1 m/s 743 mmHg 86%
    23:00 +14°C° 0 mm 1 m/s 743 mmHg 88%

    22 Iulie, Luni

    Timp Temperatura Precipitaţii Vânt Presiune Umiditate
    00:00 +14°C° 0 mm 1 m/s 743 mmHg 88%
    01:00 +14°C° 0 mm 1 m/s 743 mmHg 88%
    02:00 +12°C° 0 mm 0 m/s 743 mmHg 89%
    03:00 +14°C° 0 mm 1 m/s 743 mmHg 88%
    04:00 +14°C° 0 mm 1 m/s 743 mmHg 87%
    05:00 +14°C° 0 mm 1 m/s 743 mmHg 87%
    06:00 +16°C° 0 mm 1 m/s 742 mmHg 79%
    07:00 +19°C° 0 mm 1 m/s 742 mmHg 72%
    08:00 +21°C° 0 mm 1 m/s 742 mmHg 65%
    09:00 +22°C° 0 mm 1 m/s 742 mmHg 59%
    10:00 +24°C° 0 mm 1 m/s 742 mmHg 54%
    11:00 +25°C° 0 mm 1 m/s 742 mmHg 48%
    12:00 +25°C° 0 mm 1 m/s 742 mmHg 47%
    13:00 +26°C° 0 mm 1 m/s 742 mmHg 45%
    14:00 +27°C° 0 mm 1 m/s 741 mmHg 43%
    15:00 +26°C° 0 mm 1 m/s 741 mmHg 46%
    16:00 +26°C° 0 mm 1 m/s 741 mmHg 50%
    17:00 +25°C° 0 mm 1 m/s 741 mmHg 53%
    18:00 +23°C° 0 mm 1 m/s 741 mmHg 62%
    19:00 +21°C° 0 mm 1 m/s 741 mmHg 71%
    20:00 +18°C° 0 mm 2 m/s 741 mmHg 80%
    21:00 +18°C° 0 mm 1 m/s 741 mmHg 83%
    22:00 +16°C° 0 mm 1 m/s 741 mmHg 85%
    23:00 +15°C° 0 mm 1 m/s 741 mmHg 87%

    23 Iulie, Marţi

    Timp Temperatura Precipitaţii Vânt Presiune Umiditate
    00:00 +15°C° 0 mm 1 m/s 740 mmHg 88%
    01:00 +15°C° 0 mm 1 m/s 740 mmHg 89%
    02:00 +14°C° 0 mm 1 m/s 740 mmHg 90%
    03:00 +14°C° 0 mm 1 m/s 740 mmHg 90%
    04:00 +15°C° 0 mm 1 m/s 740 mmHg 89%
    05:00 +15°C° 0 mm 1 m/s 741 mmHg 89%
    06:00 +18°C° 0 mm 1 m/s 741 mmHg 82%
    07:00 +19°C° 0 mm 1 m/s 741 mmHg 76%
    08:00 +21°C° 0 mm 1 m/s 741 mmHg 69%
    09:00 +22°C° 0 mm 1 m/s 741 mmHg 64%
    10:00 +23°C° 0 mm 1 m/s 741 mmHg 59%
    11:00 +24°C° 0 mm 2 m/s 741 mmHg 54%
    12:00 +25°C° 0 mm 2 m/s 741 mmHg 52%
    13:00 +25°C° 0 mm 2 m/s 741 mmHg 51%
    14:00 +25°C° 0 mm 2 m/s 741 mmHg 50%
    15:00 +25°C° 0 mm 2 m/s 741 mmHg 54%
    16:00 +24°C° 0 mm 2 m/s 741 mmHg 58%
    17:00 +22°C° 0 mm 3 m/s 741 mmHg 63%
    18:00 +21°C° 0 mm 2 m/s 741 mmHg 66%
    19:00 +20°C° 0 mm 2 m/s 741 mmHg 69%
    20:00 +19°C° 0 mm 2 m/s 742 mmHg 71%
    21:00 +18°C° 0 mm 2 m/s 742 mmHg 70%
    22:00 +17°C° 0 mm 2 m/s 742 mmHg 68%
    23:00 +18°C° 0 mm 1 m/s 742 mmHg 67%

    24 Iulie, Miercuri

    Timp Temperatura Precipitaţii Vânt Presiune Umiditate
    00:00 +16°C° 0 mm 2 m/s 742 mmHg 70%
    01:00 +15°C° 0 mm 2 m/s 742 mmHg 73%
    02:00 +15°C° 0 mm 2 m/s 742 mmHg 76%
    03:00 +14°C° 0 mm 2 m/s 743 mmHg 79%
    04:00 +14°C° 0 mm 2 m/s 743 mmHg 82%
    05:00 +13°C° 0 mm 2 m/s 743 mmHg 85%
    06:00 +15°C° 0 mm 2 m/s 743 mmHg 77%
    07:00 +16°C° 0 mm 3 m/s 743 mmHg 69%
    08:00 +18°C° 0 mm 3 m/s 743 mmHg 62%
    09:00 +19°C° 0 mm 3 m/s 743 mmHg 56%
    10:00 +21°C° 0 mm 3 m/s 743 mmHg 50%
    11:00 +22°C° 0 mm 3 m/s 743 mmHg 44%
    12:00 +24°C° 0 mm 3 m/s 743 mmHg 44%
    13:00 +25°C° 0 mm 4 m/s 743 mmHg 45%
    14:00 +25°C° 0 mm 4 m/s 743 mmHg 45%
    15:00 +25°C° 0 mm 3 m/s 743 mmHg 48%
    16:00 +24°C° 0 mm 3 m/s 743 mmHg 52%
    17:00 +22°C° 0 mm 3 m/s 743 mmHg 55%
    18:00 +21°C° 0 mm 2 m/s 743 mmHg 62%
    19:00 +19°C° 0 mm 2 m/s 743 mmHg 69%
    20:00 +19°C° 0 mm 1 m/s 743 mmHg 76%
    21:00 +18°C° 0 mm 1 m/s 743 mmHg 80%
    22:00 +16°C° 0 mm 1 m/s 743 mmHg 84%
    23:00 +15°C° 0 mm 1 m/s 744 mmHg 88%
    Arată mai mult